2023-006C (55244 NORAD) Tracking and Keplerian Element Data

This shows tracking and keplerian element data for the satellite.

Feedback or suggestion? Click here.




ElementValue
Catalog55244
Name2023-006C
Epoch Orbit10
Epoch Day14.29684764
Epoch Year2023
RAAN200.7539
Inclination43.1995
Eccentricity0.0007015
Argument of Perigee273.6626
Mean Anonmoly267.9923
Mean Motion15.16110838
Decay Rate-0.00015545
L11 55244U 23006C 23014.29684764 -.00015545 00000+0 -78139-3 0 9999
L22 55244 43.1995 200.7539 0007015 273.6626 267.9923 15.16110838 107



Live tracking and technical data element details for 2023-006C (NORAD 55244). 2023-006C can be tracked NOW for your location showing map with azimuth and elevation plus other details from your city location.







IsCatalogInMostPopularTable: catalog: 55244, numindb: 5
Update: records affected: 1



GetName: 55244 2023-006C

Hit Count: updated at: Tue, 07 Feb 2023 14:43:43 GMT